KE6LRO Weather Reports


Display with metric or nautical units.
time (UTC)temp
F
wind
direction
speed
MPH
gust
MPH
rain 1hr
in
rain 24hr
in
rain mn
in
humidity
%
barometer
mb
20260504214736 68 350 1.0 7.0 0.00 0.00 0.00 36 1014.4
20260504214232 70 348 7.0 9.0 0.00 0.00 0.00 34 1014.2
20260504213729 69 341 2.0 7.0 0.00 0.00 0.00 34 1014.5
20260504213226 68 312 1.0 7.0 0.00 0.00 0.00 36 1014.6
20260504212723 68 36 2.0 5.0 0.00 0.00 0.00 35 1014.6
20260504212220 68 338 5.0 8.0 0.00 0.00 0.00 35 1014.6
20260504211717 69 335 6.0 11.0 0.00 0.00 0.00 33 1014.6
20260504211213 69 323 3.0 6.0 0.00 0.00 0.00 35 1014.5
20260504210711 68 13 2.0 7.0 0.00 0.00 0.00 34 1014.6
20260504210207 68 316 5.0 8.0 0.00 0.00 0.00 34 1014.7
20260504205704 68 296 3.0 8.0 0.00 0.00 0.00 35 1014.6
20260504205201 68 310 1.0 8.0 0.00 0.00 0.00 35 1014.9
20260504204700 67 326 2.0 7.0 0.00 0.00 0.00 36 1014.7
20260504204159 68 331 1.0 7.0 0.00 0.00 0.00 34 1014.8
20260504203657 68 272 5.0 9.0 0.00 0.00 0.00 34 1014.8
20260504203154 68 337 0.0 1.0 0.00 0.00 0.00 34 1014.7
20260504202654 68 23 2.0 8.0 0.00 0.00 0.00 35 1014.9
20260504202152 68 330 2.0 3.0 0.00 0.00 0.00 38 1014.9
20260504201649 67 304 2.0 8.0 0.00 0.00 0.00 38 1014.9
20260504201146 67 33 4.0 7.0 0.00 0.00 0.00 35 1014.6
20260504200643 66 337 4.0 7.0 0.00 0.00 0.00 37 1014.9
20260504200140 67 319 5.0 8.0 0.00 0.00 0.00 36 1014.9
20260504195636 67 315 8.0 13.0 0.00 0.00 0.00 34 1014.8
20260504195132 66 250 5.0 10.0 0.00 0.00 0.00 36 1015.1
20260504194629 66 331 5.0 7.0 0.00 0.00 0.00 35 1014.9
20260504194125 67 350 6.0 8.0 0.00 0.00 0.00 35 1015.2
20260504193621 66 317 4.0 6.0 0.00 0.00 0.00 36 1015.1
20260504193120 66 1 3.0 3.0 0.00 0.00 0.00 36 1015.2
20260504192618 65 10 5.0 8.0 0.00 0.00 0.00 37 1015.2
20260504192115 64 0 1.0 7.0 0.00 0.00 0.00 38 1015.3
20260504191614 65 321 1.0 7.0 0.00 0.00 0.00 40 1015.3
20260504191109 66 345 1.0 7.0 0.00 0.00 0.00 36 1015.5
20260504190606 66 283 1.0 8.0 0.00 0.00 0.00 38 1015.5
20260504185559 65 330 0.0 7.0 0.00 0.00 0.00 38 1015.6
20260504185055 65 341 3.0 7.0 0.00 0.00 0.00 37 1015.8
20260504184551 65 307 8.0 9.0 0.00 0.00 0.00 35 1015.6
20260504184046 64 326 2.0 8.0 0.00 0.00 0.00 37 1015.7
20260504183544 64 346 2.0 6.0 0.00 0.00 0.00 37 1015.6
20260504183042 64 304 5.0 8.0 0.00 0.00 0.00 36 1015.8
20260504182538 63 327 1.0 2.0 0.00 0.00 0.00 36 1015.8
20260504182036 64 345 1.0 6.0 0.00 0.00 0.00 36 1016.1
20260504181533 63 337 1.0 8.0 0.00 0.00 0.00 37 1015.8
20260504181031 64 12 3.0 5.0 0.00 0.00 0.00 36 1015.8
20260504180530 64 346 0.0 2.0 0.00 0.00 0.00 38 1015.9
20260504180028 64 25 2.0 3.0 0.00 0.00 0.00 38 1016.2
20260504175525 64 32 1.0 2.0 0.00 0.00 0.00 37 1015.8
20260504175022 63 328 2.0 5.0 0.00 0.00 0.00 36 1016.1
20260504174520 62 14 1.0 6.0 0.00 0.00 0.00 38 1016.2
20260504174016 62 347 0.0 2.0 0.00 0.00 0.00 40 1016.1
20260504173513 62 337 1.0 5.0 0.00 0.00 0.00 37 1016.2
20260504173011 62 21 1.0 3.0 0.00 0.00 0.00 37 1016.2
20260504172507 63 6 3.0 3.0 0.00 0.00 0.00 37 1016.1
20260504172003 62 344 0.0 6.0 0.00 0.00 0.00 40 1016.2
20260504171500 63 328 2.0 3.0 0.00 0.00 0.00 38 1016.3
20260504170957 63 353 0.0 3.0 0.00 0.00 0.00 40 1016.1
20260504170453 62 316 1.0 5.0 0.00 0.00 0.00 38 1016.2
20260504160413 59 316 1.0 2.0 0.00 0.00 0.00 43 1016.7
20260504150837 51 342 0.0 0.0 0.00 0.00 0.00 71 1016.7
20260504150334 48 343 0.0 0.0 0.00 0.00 0.00 75 1016.9
20260504141304 37 342 0.0 0.0 0.00 0.00 0.00 99 1016.7
20260504140800 35 340 0.0 0.0 0.00 0.00 0.00 99 1016.7
20260504140256 35 326 0.0 0.0 0.00 0.00 0.00 99 1017.1
20260504130725 33 310 1.0 1.0 0.00 0.00 0.00 99 1016.3
20260504130220 33 343 0.0 0.0 0.00 0.00 0.00 99 1016.3
20260504120145 33 341 0.0 0.0 0.00 0.00 0.00 99 1015.7
20260504110612 33 336 0.0 0.0 0.00 0.00 0.00 99 1015.3
20260504110108 34 336 0.0 0.0 0.00 0.00 0.00 98 1015.1
20260504100534 35 336 0.0 0.0 0.00 0.00 0.00 97 1015.1
20260504081927 38 335 0.0 0.0 0.00 0.00 0.00 95 1015.5
20260504081424 38 336 0.0 0.0 0.00 0.00 0.00 95 1015.3
20260504080920 38 335 0.0 0.0 0.00 0.00 0.00 95 1015.5
20260504080417 38 336 0.0 0.0 0.00 0.00 0.00 94 1015.4
20260504070344 40 338 0.0 0.0 0.00 0.00 0.00 92 1015.3
20260504050732 45 329 1.0 2.0 0.00 0.00 0.00 85 1015.1
20260504050229 45 335 0.0 0.0 0.00 0.00 0.00 85 1015.3
20260504045726 46 337 0.0 0.0 0.00 0.00 0.00 82 1015.4
20260504045221 46 328 0.0 0.0 0.00 0.00 0.00 81 1015.2
20260504044719 46 331 0.0 0.0 0.00 0.00 0.00 81 1015.1
20260504044216 46 328 0.0 0.0 0.00 0.00 0.00 82 1015.2
20260504043714 47 331 0.0 0.0 0.00 0.00 0.00 83 1015.2
20260504043210 47 319 0.0 0.0 0.00 0.00 0.00 81 1015.1
20260504042708 47 341 0.0 0.0 0.00 0.00 0.00 79 1015.3
20260504042204 48 341 0.0 0.0 0.00 0.00 0.00 78 1014.8
20260504041700 48 342 0.0 0.0 0.00 0.00 0.00 79 1014.9
20260504041156 48 326 0.0 1.0 0.00 0.00 0.00 78 1015.1
20260504040653 48 327 0.0 1.0 0.00 0.00 0.00 79 1014.9
20260504040150 49 340 0.0 0.0 0.00 0.00 0.00 78 1014.7
20260504035647 49 340 0.0 0.0 0.00 0.00 0.00 76 1014.8
20260504035144 49 340 0.0 0.0 0.00 0.00 0.00 75 1014.5
20260504034641 50 350 0.0 1.0 0.00 0.00 0.00 74 1014.5
20260504034138 50 327 0.0 0.0 0.00 0.00 0.00 75 1014.5
20260504033636 50 326 0.0 0.0 0.00 0.00 0.00 74 1014.4
20260504033133 51 338 0.0 0.0 0.00 0.00 0.00 71 1014.4
20260504032629 51 342 0.0 0.0 0.00 0.00 0.00 71 1014.4
20260504032127 52 323 0.0 0.0 0.00 0.00 0.00 72 1014.2
20260504031624 52 342 0.0 0.0 0.00 0.00 0.00 68 1014.1
20260504031120 52 337 0.0 1.0 0.00 0.00 0.00 68 1014.2
20260504030617 53 338 0.0 0.0 0.00 0.00 0.00 66 1013.9
20260504030114 53 330 0.0 0.0 0.00 0.00 0.00 65 1014.2
20260504025610 54 335 0.0 0.0 0.00 0.00 0.00 64 1013.9
20260504025107 54 335 0.0 0.0 0.00 0.00 0.00 64 1013.8
20260504024605 55 335 0.0 0.0 0.00 0.00 0.00 63 1013.7
20260504024101 55 339 0.0 0.0 0.00 0.00 0.00 63 1013.9
20260504023557 56 333 0.0 0.0 0.00 0.00 0.00 62 1013.8
20260504023054 57 329 0.0 0.0 0.00 0.00 0.00 61 1013.7
20260504022550 57 333 0.0 1.0 0.00 0.00 0.00 62 1013.7
20260504022046 58 331 0.0 0.0 0.00 0.00 0.00 61 1013.7
20260504021544 58 332 0.0 0.0 0.00 0.00 0.00 57 1013.5
20260504021040 59 328 0.0 1.0 0.00 0.00 0.00 57 1013.6
20260504020537 60 345 0.0 0.0 0.00 0.00 0.00 52 1013.6
20260504020034 60 339 0.0 2.0 0.00 0.00 0.00 54 1013.5
20260504015530 61 347 0.0 0.0 0.00 0.00 0.00 52 1013.6
20260504015026 62 338 0.0 0.0 0.00 0.00 0.00 51 1013.5
20260504014522 63 337 0.0 0.0 0.00 0.00 0.00 46 1013.5
20260504014020 64 337 0.0 0.0 0.00 0.00 0.00 49 1013.5
20260504013518 65 317 1.0 1.0 0.00 0.00 0.00 47 1013.5
20260504013015 68 328 0.0 2.0 0.00 0.00 0.00 46 1013.5
20260504012512 69 359 1.0 1.0 0.00 0.00 0.00 34 1013.5
20260504012010 72 323 1.0 2.0 0.00 0.00 0.00 40 1013.6
20260504011506 72 327 0.0 2.0 0.00 0.00 0.00 35 1013.6
20260504011001 73 335 0.0 6.0 0.00 0.00 0.00 27 1013.7
20260504010458 74 323 3.0 7.0 0.00 0.00 0.00 26 1013.6
20260504005954 73 7 6.0 8.0 0.00 0.00 0.00 27 1013.7
20260504005451 73 45 3.0 7.0 0.00 0.00 0.00 27 1013.7
20260504004948 74 324 0.0 2.0 0.00 0.00 0.00 36 1013.8
20260504004446 74 326 0.0 2.0 0.00 0.00 0.00 28 1013.8
20260504003943 76 323 0.0 1.0 0.00 0.00 0.00 24 1013.8
20260504003439 76 330 0.0 2.0 0.00 0.00 0.00 24 1013.8
20260504002936 75 326 0.0 1.0 0.00 0.00 0.00 25 1013.9
20260504002433 74 299 2.0 2.0 0.00 0.00 0.00 26 1013.8
20260504001930 75 283 2.0 3.0 0.00 0.00 0.00 25 1013.9
20260504001427 75 331 1.0 3.0 0.00 0.00 0.00 25 1013.9
20260504000924 75 332 1.0 7.0 0.00 0.00 0.00 26 1013.9
20260504000423 74 3 1.0 8.0 0.00 0.00 0.00 26 1014.1
20260503235918 75 348 1.0 3.0 0.00 0.00 0.00 25 1014.2
20260503235416 76 345 5.0 6.0 0.00 0.00 0.00 24 1014.2
20260503234914 76 345 0.0 5.0 0.00 0.00 0.00 24 1014.2
20260503234411 76 343 4.0 6.0 0.00 0.00 0.00 23 1014.3
20260503233909 77 337 1.0 3.0 0.00 0.00 0.00 24 1014.1
20260503233405 76 342 1.0 6.0 0.00 0.00 0.00 24 1014.2
20260503232901 77 359 1.0 3.0 0.00 0.00 0.00 25 1014.2
20260503232359 76 307 1.0 2.0 0.00 0.00 0.00 24 1014.4
20260503231856 76 246 3.0 8.0 0.00 0.00 0.00 24 1014.4
20260503231353 76 322 1.0 2.0 0.00 0.00 0.00 24 1014.3
20260503230849 76 307 2.0 6.0 0.00 0.00 0.00 24 1014.3
20260503230346 77 22 4.0 8.0 0.00 0.00 0.00 23 1014.6
20260503225844 78 340 3.0 5.0 0.00 0.00 0.00 24 1014.7
20260503225340 76 274 2.0 3.0 0.00 0.00 0.00 24 1014.6
20260503224836 76 264 4.0 8.0 0.00 0.00 0.00 23 1014.7
20260503224334 76 308 0.0 0.0 0.00 0.00 0.00 23 1014.6
20260503223831 77 314 2.0 3.0 0.00 0.00 0.00 24 1014.9
20260503223329 77 321 0.0 8.0 0.00 0.00 0.00 24 1014.9
20260503222824 76 315 5.0 6.0 0.00 0.00 0.00 24 1014.9
20260503222323 76 9 4.0 7.0 0.00 0.00 0.00 24 1014.9
20260503221820 76 316 3.0 7.0 0.00 0.00 0.00 25 1014.8
20260503221319 77 326 2.0 11.0 0.00 0.00 0.00 24 1015.2
20260503220815 76 16 2.0 6.0 0.00 0.00 0.00 26 1014.9
20260503220312 74 337 0.0 1.0 0.00 0.00 0.00 26 1015.3
20260503215808 74 356 0.0 2.0 0.00 0.00 0.00 27 1015.2
20260503215306 74 20 0.0 2.0 0.00 0.00 0.00 25 1015.3